Regional Weather Roundup
Issued by NWS

Home | Current Version | Previous Version | Text Only | Print | Product List | Glossary Off
Versions: 1 2 3 4 5 6 7 8 9 10 11 12 13 14 15 16 17 18 19 20 21 22 23 24 25 26 27 28 29 30 31 32 33 34 35 36 37 38 39 40 41 42 43 44 45 46 47 48 49 50

000
ASUS45 KBOU 051210
RWRCO

WEATHER ROUNDUP FOR COLORADO
NATIONAL WEATHER SERVICE DENVER/BOULDER CO
600 AM MDT SUN JUL 05 2015

NOTE: "FAIR" INDICATES FEW OR NO CLOUDS BELOW 12000 FEET WITH NO
SIGNIFICANT WEATHER AND/OR OBSTRUCTIONS TO VISIBILITY.

COZ001>005-013-030-031-051300-
...NORTHWEST COLORADO...

CITY           SKY/WX    TMP DP  RH WIND       PRES   REMARKS
CRAIG          CLOUDY    61  54  77 E6        30.17R
HAYDEN         CLOUDY    59  46  63 E5        30.19R
MEEKER         CLOUDY    66  53  63 SW7       30.19R
MOUNT WERNER   NOT AVBL
STEAMBOAT SPGS CLOUDY    54  46  74 SE3       30.21R
WALDEN         MOCLDY    43  39  87 SE9       30.26R
$$

COZ006>008-011-051300-
...WEST CENTRAL VALLEYS...

CITY           SKY/WX    TMP DP  RH WIND       PRES   REMARKS
GRAND JUNCTION CLOUDY    64  62  93 W7        30.10S
MONTROSE       CLOUDY    65  57  75 N5        30.17R
EAGLE          MOCLDY    57  48  72 CALM      30.22R
RIFLE          CLOUDY    64  57  78 CALM      30.15R
DELTA          CLOUDY    70  58  66 CALM      30.12R
NUCLA          CLOUDY    63  59  88 CALM      30.21F
$$

COZ017>023-064>068-051300-
...SOUTHWEST COLORADO...

CITY           SKY/WX    TMP DP  RH WIND       PRES   REMARKS
DURANGO        CLOUDY    56  55  97 E3        30.22S
CORTEZ         CLOUDY    63  57  81 CALM      30.17R
PAGOSA SPRINGS CLOUDY    52  52 100 CALM      30.30R
TELLURIDE      MOCLDY    52  50  92 E3        30.38S
WOLF CREEK PAS NOT AVBL
$$

COZ009-010-012-014-032>034-037-058>063-051300-
...CENTRAL COLORADO...

CITY           SKY/WX    TMP DP  RH WIND       PRES   REMARKS
ASPEN          PTCLDY    53  46  77 S6        30.27R
BUENA VISTA    PTCLDY    47  45  90 W3        30.26S
COPPER MTN     MOCLDY    52  39  62 W7        30.55F
BERTHOUD PASS  FAIR      43  32  65 N14G24    30.60R
COTTONWOOD PAS NOT AVBL
GUNNISON       MOCLDY    55  45  67 N3        30.31S
KREMMLING      MOCLDY    50  41  71 CALM      30.27R
LEADVILLE      PTCLDY    45  43  93 CALM      30.39S
MONARCH PASS   MOCLDY    45  41  87 W21       30.64S
SALIDA         PTCLDY    59  48  66 NW8       30.30S
SUNLIGHT       MOCLDY    50  46  87 CALM      30.49R
WILKERSON PASS MOCLDY    50  37  62 W7        30.51R
$$

COZ069>075-051300-
...SAN LUIS VALLEY/SANGRE DE CRISTO MOUNTAINS...

CITY           SKY/WX    TMP DP  RH WIND       PRES   REMARKS
ALAMOSA        MOCLDY    50  45  83 SW3       30.26R
LA VETA PASS   PTCLDY    46  41  81 MISG      30.39S
SAGUACHE       MOCLDY    55  48  76 NW15      30.29R
$$

COZ035-036-038>040-051300-
...NORTHERN COLORADO FRONT RANGE...

CITY           SKY/WX    TMP DP  RH WIND       PRES   REMARKS
DENVER INTL AP MOCLDY    63  51  65 S8        30.00R
DMNS CITY PARK   N/A     67  51  56 SE7G14    30.00R
AURORA         MOCLDY    64  50  61 S8        30.03R
FRONT RANGE AP MOCLDY    64  54  68 SW6       30.02R
ERIE MUNI ARPT PTCLDY    61  52  71 CALM      29.98R
BOULDER MUN AP PTCLDY    68  46  45 SW5       29.98S
CENTENNIAL     MOCLDY    61  52  72 S5        30.04R
BROOMFIELD     PTCLDY    66  50  55 CALM      30.02R
FORT COLLINS   PTCLDY    59  52  77 SE8       29.97S
LONGMONT       PTCLDY    62  52  71 CALM      29.99R
$$

COZ041-046-047-076>085-087-088-051300-
...PIKES PEAK/PALMER DIVIDE AND SOUTHERN FOOTHILLS...

CITY           SKY/WX    TMP DP  RH WIND       PRES   REMARKS
COLO. SPRINGS  MOCLDY    60  50  69 N7        30.08R
A. F. ACADEMY  MOCLDY    56  49  75 N6        30.10R
ELLICOTT       PTCLDY   N/A N/A N/A CALM      30.05S
FALCON         PTCLDY    58  47  67 N3        30.14R
FORT CARSON    PTCLDY    58  50  73 N8        30.04R
LIMON          PTCLDY    54  52  93 CALM      30.01S
MONUMENT HILL  PTCLDY    59  46  63 SW7       30.14R
TRINIDAD       CLEAR     63  51  65 W8        30.06R
$$

COZ042>045-048>051-090-091-051300-
...NORTHEAST COLORADO...

CITY           SKY/WX    TMP DP  RH WIND       PRES   REMARKS
GREELEY ARPT   PTCLDY    61  55  82 CALM      29.96R
AKRON          PTCLDY    66  51  58 SW12      29.94S
BURLINGTON     PTCLDY    61  57  87 SE6       29.93R
WRAY           CLEAR     66  58  76 S3        29.89S
STERLING       PTCLDY    61  54  77 S6          N/A
HOLYOKE        CLEAR     61  57  88 SE5       29.89R
FORT MORGAN    PTCLDY    57  51  79 SW3       29.94S
$$

COZ086-089-092>099-051300-
...SOUTHEAST COLORADO...

CITY           SKY/WX    TMP DP  RH WIND       PRES   REMARKS
PUEBLO         PTCLDY    62  54  74 VRB3      29.97R
LA JUNTA       PTCLDY    64  52  64 CALM      29.94R
LAMAR          PTCLDY    63  56  78 CALM      29.90R
SPRINGFIELD      N/A     64  58  80 SW6       29.98R
$$


USA.gov is the U.S. government's official web portal to all federal, state and local government web resources and services.